User: anonymous   Login
Location: Unspecified
(0.0000°N, 0.0000°E)
Time: 12:40:44
(UTC+00:00)
Language:

NOAA 16 DEB - Orbit

View from above orbital plane
View from above orbital plane
View from above satellite
View from above satellite

Ground track
Ground track

The orbit data is extracted from the following two-line orbital elements,

1 42344U 00055QL  21339.03526065  .00001436  00000-0  63206-3 0  9996
2 42344  98.7311  66.2175 0048543 210.5428 149.2922 14.24400423291747
Epoch (UTC): 05 December 2021 00:50:46
Eccentricity: 0.0048543
inclination: 98.7311°
perigee height: 775 km
apogee height: 845 km
right ascension of ascending node: 66.2175°
argument of perigee: 210.5428°
revolutions per day: 14.24400423
mean anomaly at epoch: 149.2922°
orbit number at epoch: 29174

The dashed part of the orbit path shows where the satellite is in the earth's shadow,  

DLR